User: anonymous   Login
Location: Unspecified
(0.0000°N, 0.0000°E)
Time: 03:25:10
(UTC+00:00)
Language:

USA 236 - Orbit

View from above orbital plane
View from above orbital plane
View from above satellite
View from above satellite

Ground track
Ground track

The orbit data is extracted from the following two-line orbital elements,

1 38466U 12033A   17153.93036874 0.00000000  00000-0  00000-0 0    06
2 38466   1.4782 216.4551 0003453 103.0152 257.0253  1.00270000    06
Epoch (UTC): 02 June 2017 22:19:43
Eccentricity: 0.0003453
inclination: 1.4782°
perigee height: 35772 km
apogee height: 35801 km
right ascension of ascending node: 216.4551°
argument of perigee: 103.0152°
revolutions per day: 1.00270000
mean anomaly at epoch: 257.0253°
orbit number at epoch: 0

The dashed part of the orbit path shows where the satellite is in the earth's shadow,  

DLR